| time (UTC) | temp F | wind direction | speed MPH | gust MPH | rain 1hr in | rain 24hr in | rain mn in | humidity % | barometer mb |
| 20260509045045 | 59 | 151 | 0.0 | 1.0 | 0.00 | 0.00 | 0.00 | 84 | 1015.2 |
| 20260509044545 | 59 | 151 | 0.0 | 0.0 | 0.00 | 0.00 | 0.00 | 85 | 1015.2 |
| 20260509044045 | 59 | 151 | 0.0 | 1.0 | 0.00 | 0.00 | 0.00 | 85 | 1015.2 |
| 20260509043545 | 58 | 151 | 0.0 | 1.0 | 0.00 | 0.00 | 0.00 | 85 | 1015.2 |
| 20260509043045 | 58 | 151 | 0.0 | 1.0 | 0.00 | 0.00 | 0.00 | 85 | 1015.1 |
| 20260509042545 | 58 | 151 | 0.0 | 1.0 | 0.00 | 0.00 | 0.00 | 85 | 1015.0 |
| 20260509042045 | 59 | 151 | 0.0 | 1.0 | 0.00 | 0.00 | 0.00 | 85 | 1015.0 |
| 20260509041545 | 59 | 151 | 0.0 | 1.0 | 0.00 | 0.00 | 0.00 | 85 | 1015.0 |
| 20260509041045 | 59 | 151 | 0.0 | 1.0 | 0.00 | 0.00 | 0.00 | 84 | 1014.9 |
| 20260509040545 | 59 | 151 | 0.0 | 1.0 | 0.00 | 0.00 | 0.00 | 84 | 1014.9 |
| 20260509040045 | 59 | 151 | 0.0 | 1.0 | 0.00 | 0.00 | 0.00 | 84 | 1014.8 |
| 20260509035545 | 60 | 151 | 0.0 | 2.0 | 0.00 | 0.00 | 0.00 | 84 | 1014.8 |
| 20260509035045 | 60 | 151 | 0.0 | 1.0 | 0.00 | 0.00 | 0.00 | 84 | 1014.8 |
| 20260509034548 | 60 | 151 | 0.0 | 1.0 | 0.00 | 0.00 | 0.00 | 83 | 1014.7 |
| 20260509034045 | 60 | 151 | 0.0 | 0.0 | 0.00 | 0.00 | 0.00 | 83 | 1014.8 |
| 20260509033545 | 60 | 151 | 0.0 | 0.0 | 0.00 | 0.00 | 0.00 | 83 | 1014.7 |
| 20260509033045 | 60 | 151 | 0.0 | 0.0 | 0.00 | 0.00 | 0.00 | 83 | 1014.6 |
| 20260509032548 | 60 | 151 | 0.0 | 0.0 | 0.00 | 0.00 | 0.00 | 83 | 1014.7 |
| 20260509032045 | 60 | 151 | 0.0 | 0.0 | 0.00 | 0.00 | 0.00 | 83 | 1014.4 |
| 20260509031545 | 60 | 151 | 0.0 | 0.0 | 0.00 | 0.00 | 0.00 | 83 | 1014.5 |
| 20260509031048 | 60 | 151 | 0.0 | 0.0 | 0.00 | 0.00 | 0.00 | 83 | 1014.5 |
| 20260509030545 | 60 | 151 | 0.0 | 0.0 | 0.00 | 0.00 | 0.00 | 84 | 1014.4 |
| 20260509030048 | 60 | 151 | 0.0 | 1.0 | 0.00 | 0.00 | 0.00 | 84 | 1014.3 |
| 20260509025548 | 60 | 151 | 0.0 | 2.0 | 0.00 | 0.00 | 0.00 | 84 | 1014.3 |
| 20260509025045 | 60 | 151 | 0.0 | 0.0 | 0.00 | 0.00 | 0.00 | 84 | 1014.2 |
| 20260509024545 | 60 | 151 | 0.0 | 0.0 | 0.00 | 0.00 | 0.00 | 84 | 1014.1 |
| 20260509024045 | 60 | 151 | 0.0 | 1.0 | 0.00 | 0.00 | 0.00 | 84 | 1014.1 |
| 20260509023545 | 60 | 151 | 0.0 | 0.0 | 0.00 | 0.00 | 0.00 | 84 | 1014.2 |
| 20260509023045 | 60 | 151 | 0.0 | 0.0 | 0.00 | 0.00 | 0.00 | 84 | 1014.2 |
| 20260509022548 | 60 | 151 | 0.0 | 0.0 | 0.00 | 0.00 | 0.00 | 84 | 1014.1 |
| 20260509022048 | 60 | 151 | 0.0 | 2.0 | 0.00 | 0.00 | 0.00 | 85 | 1014.1 |
| 20260509021548 | 60 | 151 | 1.0 | 2.0 | 0.00 | 0.00 | 0.00 | 85 | 1014.3 |
| 20260509021046 | 60 | 151 | 0.0 | 1.0 | 0.00 | 0.00 | 0.00 | 85 | 1014.4 |
| 20260509020548 | 60 | 151 | 0.0 | 1.0 | 0.00 | 0.00 | 0.00 | 85 | 1014.4 |
| 20260509020045 | 60 | 151 | 0.0 | 1.0 | 0.00 | 0.00 | 0.00 | 85 | 1014.3 |
| 20260509015545 | 60 | 151 | 1.0 | 2.0 | 0.00 | 0.00 | 0.00 | 85 | 1014.3 |
| 20260509015048 | 60 | 151 | 1.0 | 1.0 | 0.00 | 0.00 | 0.00 | 84 | 1014.2 |
| 20260509014545 | 60 | 151 | 0.0 | 2.0 | 0.00 | 0.00 | 0.00 | 84 | 1014.2 |
| 20260509014045 | 60 | 151 | 0.0 | 0.0 | 0.00 | 0.00 | 0.00 | 83 | 1014.2 |
| 20260509013545 | 60 | 151 | 0.0 | 2.0 | 0.00 | 0.00 | 0.00 | 83 | 1014.2 |
| 20260509013045 | 60 | 151 | 0.0 | 2.0 | 0.00 | 0.00 | 0.00 | 83 | 1014.1 |
| 20260509012545 | 60 | 151 | 0.0 | 1.0 | 0.00 | 0.00 | 0.00 | 83 | 1014.2 |
| 20260509012045 | 60 | 151 | 1.0 | 1.0 | 0.00 | 0.00 | 0.00 | 83 | 1014.2 |
| 20260509011548 | 60 | 151 | 0.0 | 0.0 | 0.00 | 0.00 | 0.00 | 83 | 1014.1 |
| 20260509011045 | 60 | 151 | 0.0 | 0.0 | 0.00 | 0.00 | 0.00 | 83 | 1014.1 |
| 20260509010545 | 60 | 151 | 0.0 | 1.0 | 0.00 | 0.00 | 0.00 | 83 | 1014.2 |
| 20260509010045 | 60 | 151 | 0.0 | 0.0 | 0.00 | 0.00 | 0.00 | 83 | 1014.2 |
| 20260509005545 | 60 | 151 | 0.0 | 0.0 | 0.00 | 0.00 | 0.00 | 83 | 1014.2 |
| 20260509005048 | 60 | 151 | 0.0 | 0.0 | 0.00 | 0.00 | 0.00 | 83 | 1014.3 |
| 20260509004548 | 60 | 151 | 0.0 | 0.0 | 0.00 | 0.00 | 0.00 | 83 | 1014.2 |
| 20260509004045 | 60 | 151 | 0.0 | 0.0 | 0.00 | 0.00 | 0.00 | 83 | 1014.3 |
| 20260509003545 | 60 | 151 | 0.0 | 0.0 | 0.00 | 0.00 | 0.00 | 83 | 1014.3 |
| 20260509003048 | 60 | 151 | 0.0 | 0.0 | 0.00 | 0.00 | 0.00 | 83 | 1014.3 |
| 20260509002545 | 60 | 151 | 0.0 | 0.0 | 0.00 | 0.00 | 0.00 | 83 | 1014.2 |
| 20260509002045 | 60 | 151 | 0.0 | 0.0 | 0.00 | 0.00 | 0.00 | 83 | 1014.2 |
| 20260509001545 | 60 | 151 | 0.0 | 2.0 | 0.00 | 0.00 | 0.00 | 83 | 1014.1 |
| 20260509001045 | 61 | 151 | 0.0 | 2.0 | 0.00 | 0.00 | 0.00 | 83 | 1014.2 |
| 20260509000545 | 61 | 151 | 2.0 | 2.0 | 0.00 | 0.00 | 0.00 | 82 | 1014.2 |
| 20260509000045 | 61 | 151 | 0.0 | 2.0 | 0.00 | 0.00 | 0.00 | 82 | 1014.1 |
| 20260508235545 | 61 | 151 | 0.0 | 1.0 | 0.00 | 0.00 | 0.00 | 82 | 1014.0 |
| 20260508235045 | 61 | 151 | 1.0 | 1.0 | 0.00 | 0.00 | 0.00 | 81 | 1014.0 |
| 20260508234545 | 61 | 151 | 0.0 | 1.0 | 0.00 | 0.00 | 0.00 | 81 | 1014.0 |
| 20260508234048 | 61 | 151 | 0.0 | 0.0 | 0.00 | 0.00 | 0.00 | 81 | 1014.0 |
| 20260508233548 | 61 | 151 | 0.0 | 0.0 | 0.00 | 0.00 | 0.00 | 81 | 1014.0 |
| 20260508233048 | 61 | 151 | 0.0 | 0.0 | 0.00 | 0.00 | 0.00 | 81 | 1014.0 |
| 20260508232545 | 61 | 151 | 0.0 | 1.0 | 0.00 | 0.00 | 0.00 | 81 | 1014.0 |
| 20260508232045 | 61 | 151 | 0.0 | 0.0 | 0.00 | 0.00 | 0.00 | 81 | 1014.0 |
| 20260508231545 | 61 | 151 | 0.0 | 0.0 | 0.00 | 0.00 | 0.00 | 81 | 1014.0 |
| 20260508231045 | 61 | 151 | 0.0 | 0.0 | 0.00 | 0.00 | 0.00 | 81 | 1014.0 |
| 20260508230545 | 61 | 151 | 0.0 | 1.0 | 0.00 | 0.00 | 0.00 | 81 | 1014.0 |
| 20260508230045 | 61 | 151 | 0.0 | 1.0 | 0.00 | 0.00 | 0.00 | 82 | 1013.9 |
| 20260508225545 | 61 | 151 | 0.0 | 3.0 | 0.00 | 0.00 | 0.00 | 82 | 1013.9 |
| 20260508225045 | 62 | 151 | 0.0 | 1.0 | 0.00 | 0.00 | 0.00 | 83 | 1013.8 |
| 20260508224548 | 62 | 151 | 0.0 | 1.0 | 0.00 | 0.00 | 0.00 | 83 | 1013.8 |
| 20260508224045 | 62 | 151 | 0.0 | 0.0 | 0.00 | 0.00 | 0.00 | 83 | 1013.9 |
| 20260508223545 | 62 | 151 | 0.0 | 0.0 | 0.00 | 0.00 | 0.00 | 83 | 1013.8 |
| 20260508223046 | 62 | 151 | 0.0 | 1.0 | 0.00 | 0.00 | 0.00 | 83 | 1013.9 |
| 20260508222545 | 62 | 151 | 0.0 | 4.0 | 0.00 | 0.00 | 0.00 | 83 | 1013.9 |
| 20260508222045 | 63 | 151 | 3.0 | 3.0 | 0.00 | 0.00 | 0.00 | 83 | 1013.9 |
| 20260508221545 | 63 | 150 | 2.0 | 10.0 | 0.00 | 0.00 | 0.00 | 82 | 1013.9 |
| 20260508221045 | 64 | 330 | 0.0 | 3.0 | 0.00 | 0.00 | 0.00 | 82 | 1013.8 |
| 20260508220545 | 64 | 330 | 2.0 | 3.0 | 0.00 | 0.00 | 0.00 | 82 | 1013.8 |
| 20260508220045 | 64 | 330 | 2.0 | 2.0 | 0.00 | 0.00 | 0.00 | 82 | 1013.8 |
| 20260508215545 | 64 | 330 | 1.0 | 2.0 | 0.00 | 0.00 | 0.00 | 81 | 1013.8 |
| 20260508215045 | 64 | 330 | 0.0 | 1.0 | 0.00 | 0.00 | 0.00 | 81 | 1013.8 |
| 20260508214548 | 64 | 330 | 1.0 | 2.0 | 0.00 | 0.00 | 0.00 | 81 | 1013.7 |
| 20260508214045 | 64 | 330 | 0.0 | 0.0 | 0.00 | 0.00 | 0.00 | 81 | 1013.7 |
| 20260508213545 | 64 | 330 | 0.0 | 0.0 | 0.00 | 0.00 | 0.00 | 80 | 1013.7 |
| 20260508213045 | 64 | 330 | 0.0 | 1.0 | 0.00 | 0.00 | 0.00 | 80 | 1013.7 |
| 20260508212548 | 64 | 330 | 0.0 | 1.0 | 0.00 | 0.00 | 0.00 | 80 | 1013.6 |
| 20260508212045 | 64 | 330 | 0.0 | 2.0 | 0.00 | 0.00 | 0.00 | 80 | 1013.6 |
| 20260508211548 | 64 | 330 | 0.0 | 5.0 | 0.00 | 0.00 | 0.00 | 80 | 1013.5 |
| 20260508211048 | 65 | 338 | 1.0 | 6.0 | 0.00 | 0.00 | 0.00 | 80 | 1013.6 |
| 20260508210545 | 65 | 333 | 0.0 | 4.0 | 0.00 | 0.00 | 0.00 | 79 | 1013.6 |
| 20260508210045 | 65 | 331 | 1.0 | 6.0 | 0.00 | 0.00 | 0.00 | 79 | 1013.5 |
| 20260508205545 | 65 | 319 | 3.0 | 7.0 | 0.00 | 0.00 | 0.00 | 79 | 1013.5 |
| 20260508205045 | 65 | 327 | 2.0 | 6.0 | 0.00 | 0.00 | 0.00 | 78 | 1013.5 |
| 20260508204550 | 65 | 20 | 1.0 | 4.0 | 0.00 | 0.00 | 0.00 | 78 | 1013.5 |
| 20260508204045 | 65 | 30 | 2.0 | 5.0 | 0.00 | 0.00 | 0.00 | 78 | 1013.6 |
| 20260508203545 | 65 | 331 | 2.0 | 8.0 | 0.00 | 0.00 | 0.00 | 78 | 1013.7 |
| 20260508203045 | 65 | 337 | 4.0 | 6.0 | 0.00 | 0.00 | 0.00 | 77 | 1013.7 |
| 20260508202545 | 65 | 336 | 4.0 | 6.0 | 0.00 | 0.00 | 0.00 | 76 | 1013.7 |
| 20260508202045 | 66 | 350 | 2.0 | 8.0 | 0.00 | 0.00 | 0.00 | 76 | 1013.7 |
| 20260508201548 | 66 | 319 | 4.0 | 6.0 | 0.00 | 0.00 | 0.00 | 76 | 1013.7 |
| 20260508201046 | 66 | 340 | 2.0 | 6.0 | 0.00 | 0.00 | 0.00 | 75 | 1013.6 |
| 20260508200548 | 66 | 339 | 5.0 | 8.0 | 0.00 | 0.00 | 0.00 | 75 | 1013.6 |
| 20260508200045 | 66 | 341 | 4.0 | 8.0 | 0.00 | 0.00 | 0.00 | 75 | 1013.6 |
| 20260508195545 | 66 | 0 | 2.0 | 6.0 | 0.00 | 0.00 | 0.00 | 74 | 1013.5 |
| 20260508195045 | 66 | 25 | 6.0 | 5.0 | 0.00 | 0.00 | 0.00 | 74 | 1013.4 |
| 20260508194545 | 66 | 38 | 1.0 | 3.0 | 0.00 | 0.00 | 0.00 | 74 | 1013.3 |
| 20260508194045 | 66 | 38 | 1.0 | 3.0 | 0.00 | 0.00 | 0.00 | 74 | 1013.3 |
| 20260508193548 | 66 | 38 | 1.0 | 3.0 | 0.00 | 0.00 | 0.00 | 73 | 1013.2 |
| 20260508193048 | 66 | 38 | 1.0 | 4.0 | 0.00 | 0.00 | 0.00 | 73 | 1013.2 |
| 20260508192545 | 66 | 38 | 2.0 | 4.0 | 0.00 | 0.00 | 0.00 | 73 | 1013.1 |
| 20260508192045 | 66 | 38 | 1.0 | 3.0 | 0.00 | 0.00 | 0.00 | 73 | 1013.0 |
| 20260508191548 | 66 | 38 | 2.0 | 5.0 | 0.00 | 0.00 | 0.00 | 73 | 1012.9 |
| 20260508191045 | 66 | 39 | 1.0 | 5.0 | 0.00 | 0.00 | 0.00 | 73 | 1012.9 |
| 20260508190545 | 66 | 42 | 2.0 | 5.0 | 0.00 | 0.00 | 0.00 | 72 | 1012.8 |
| 20260508190045 | 67 | 45 | 1.0 | 4.0 | 0.00 | 0.00 | 0.00 | 72 | 1012.7 |
| 20260508185545 | 67 | 45 | 3.0 | 4.0 | 0.00 | 0.00 | 0.00 | 72 | 1012.8 |
| 20260508185048 | 67 | 45 | 2.0 | 3.0 | 0.00 | 0.00 | 0.00 | 72 | 1012.8 |
| 20260508184545 | 67 | 45 | 3.0 | 3.0 | 0.00 | 0.00 | 0.00 | 71 | 1012.6 |
| 20260508184045 | 67 | 45 | 1.0 | 2.0 | 0.00 | 0.00 | 0.00 | 71 | 1012.6 |
| 20260508183545 | 67 | 45 | 0.0 | 1.0 | 0.00 | 0.00 | 0.00 | 70 | 1012.5 |
| 20260508183045 | 67 | 45 | 0.0 | 3.0 | 0.00 | 0.00 | 0.00 | 70 | 1012.4 |
| 20260508182544 | 67 | 45 | 1.0 | 2.0 | 0.00 | 0.00 | 0.00 | 70 | 1012.4 |
| 20260508182048 | 67 | 45 | 0.0 | 4.0 | 0.00 | 0.00 | 0.00 | 70 | 1012.4 |
| 20260508181545 | 67 | 46 | 2.0 | 5.0 | 0.00 | 0.00 | 0.00 | 69 | 1012.2 |
| 20260508181045 | 67 | 47 | 3.0 | 5.0 | 0.00 | 0.00 | 0.00 | 69 | 1012.1 |
| 20260508180545 | 67 | 57 | 0.0 | 2.0 | 0.00 | 0.00 | 0.00 | 68 | 1012.1 |
| 20260508180045 | 67 | 57 | 0.0 | 1.0 | 0.00 | 0.00 | 0.00 | 68 | 1012.0 |
| 20260508175545 | 67 | 57 | 0.0 | 1.0 | 0.00 | 0.00 | 0.00 | 68 | 1012.0 |
| 20260508175048 | 67 | 57 | 0.0 | 0.0 | 0.00 | 0.00 | 0.00 | 70 | 1011.9 |
| 20260508174548 | 67 | 57 | 0.0 | 0.0 | 0.00 | 0.00 | 0.00 | 69 | 1011.9 |
| 20260508174048 | 67 | 57 | 0.0 | 0.0 | 0.00 | 0.00 | 0.00 | 69 | 1011.7 |
| 20260508173545 | 67 | 57 | 0.0 | 0.0 | 0.00 | 0.00 | 0.00 | 68 | 1011.7 |
| 20260508173045 | 66 | 57 | 0.0 | 2.0 | 0.00 | 0.00 | 0.00 | 68 | 1011.7 |
| 20260508172545 | 66 | 57 | 2.0 | 4.0 | 0.00 | 0.00 | 0.00 | 68 | 1011.6 |
| 20260508172045 | 66 | 58 | 3.0 | 3.0 | 0.00 | 0.00 | 0.00 | 68 | 1011.7 |
| 20260508171545 | 67 | 58 | 1.0 | 3.0 | 0.00 | 0.00 | 0.00 | 68 | 1011.6 |
| 20260508171045 | 67 | 58 | 2.0 | 3.0 | 0.00 | 0.00 | 0.00 | 68 | 1011.7 |
| 20260508170545 | 66 | 58 | 0.0 | 3.0 | 0.00 | 0.00 | 0.00 | 68 | 1011.7 |
| 20260508170045 | 66 | 58 | 0.0 | 3.0 | 0.00 | 0.00 | 0.00 | 68 | 1011.7 |
| 20260508165545 | 66 | 58 | 1.0 | 3.0 | 0.00 | 0.00 | 0.00 | 69 | 1011.7 |
| 20260508165045 | 66 | 58 | 1.0 | 2.0 | 0.00 | 0.00 | 0.00 | 70 | 1011.6 |
| 20260508164545 | 66 | 58 | 1.0 | 2.0 | 0.00 | 0.00 | 0.00 | 70 | 1011.5 |
| 20260508164045 | 66 | 58 | 0.0 | 4.0 | 0.00 | 0.00 | 0.00 | 70 | 1011.5 |
| 20260508163545 | 66 | 58 | 3.0 | 4.0 | 0.00 | 0.00 | 0.00 | 72 | 1011.4 |
| 20260508163045 | 66 | 61 | 2.0 | 3.0 | 0.00 | 0.00 | 0.00 | 73 | 1011.4 |
| 20260508162545 | 66 | 61 | 0.0 | 3.0 | 0.00 | 0.00 | 0.00 | 74 | 1011.4 |
| 20260508162048 | 66 | 62 | 2.0 | 3.0 | 0.00 | 0.00 | 0.00 | 74 | 1011.3 |
| 20260508161545 | 66 | 63 | 1.0 | 4.0 | 0.00 | 0.00 | 0.00 | 74 | 1011.3 |
| 20260508161045 | 66 | 63 | 1.0 | 4.0 | 0.00 | 0.00 | 0.00 | 74 | 1011.2 |
| 20260508160545 | 66 | 64 | 4.0 | 6.0 | 0.00 | 0.00 | 0.00 | 74 | 1011.2 |
| 20260508160045 | 66 | 117 | 4.0 | 7.0 | 0.00 | 0.00 | 0.00 | 75 | 1011.2 |
| 20260508155545 | 66 | 52 | 2.0 | 4.0 | 0.00 | 0.00 | 0.00 | 75 | 1011.2 |
| 20260508155045 | 66 | 53 | 0.0 | 4.0 | 0.00 | 0.00 | 0.00 | 75 | 1011.2 |
| 20260508154545 | 66 | 60 | 2.0 | 4.0 | 0.00 | 0.00 | 0.00 | 75 | 1011.2 |
| 20260508154045 | 66 | 76 | 2.0 | 5.0 | 0.00 | 0.00 | 0.00 | 75 | 1011.2 |
| 20260508153545 | 66 | 81 | 1.0 | 7.0 | 0.00 | 0.00 | 0.00 | 75 | 1011.2 |
| 20260508153045 | 66 | 91 | 4.0 | 6.0 | 0.00 | 0.00 | 0.00 | 76 | 1011.2 |
| 20260508152545 | 66 | 100 | 4.0 | 7.0 | 0.00 | 0.00 | 0.00 | 76 | 1011.1 |
| 20260508152045 | 65 | 91 | 3.0 | 8.0 | 0.00 | 0.00 | 0.00 | 76 | 1011.1 |
| 20260508151548 | 66 | 111 | 4.0 | 8.0 | 0.00 | 0.00 | 0.00 | 76 | 1011.0 |
| 20260508151045 | 66 | 96 | 3.0 | 9.0 | 0.00 | 0.00 | 0.00 | 76 | 1011.0 |
| 20260508150545 | 66 | 98 | 6.0 | 8.0 | 0.00 | 0.00 | 0.00 | 76 | 1010.9 |
| 20260508150045 | 66 | 113 | 4.0 | 8.0 | 0.00 | 0.00 | 0.00 | 76 | 1010.9 |
| 20260508145545 | 66 | 112 | 0.0 | 9.0 | 0.00 | 0.00 | 0.00 | 75 | 1010.8 |
| 20260508145045 | 66 | 168 | 5.0 | 9.0 | 0.00 | 0.00 | 0.00 | 75 | 1010.8 |
| 20260508144545 | 66 | 92 | 4.0 | 8.0 | 0.00 | 0.00 | 0.00 | 74 | 1010.8 |
| 20260508144045 | 67 | 133 | 3.0 | 7.0 | 0.00 | 0.00 | 0.00 | 73 | 1010.7 |
| 20260508143545 | 67 | 111 | 7.0 | 8.0 | 0.00 | 0.00 | 0.00 | 72 | 1010.7 |
| 20260508143045 | 67 | 101 | 3.0 | 7.0 | 0.00 | 0.00 | 0.00 | 71 | 1010.7 |
| 20260508142551 | 67 | 158 | 3.0 | 7.0 | 0.00 | 0.00 | 0.00 | 68 | 1010.7 |
| 20260508142045 | 67 | 159 | 0.0 | 6.0 | 0.00 | 0.00 | 0.00 | 68 | 1010.7 |
| 20260508141545 | 67 | 163 | 4.0 | 4.0 | 0.00 | 0.00 | 0.00 | 68 | 1010.8 |
| 20260508141045 | 67 | 138 | 2.0 | 4.0 | 0.00 | 0.00 | 0.00 | 68 | 1010.8 |
| 20260508140544 | 67 | 135 | 1.0 | 4.0 | 0.00 | 0.00 | 0.00 | 67 | 1010.8 |
| 20260508140048 | 67 | 135 | 0.0 | 5.0 | 0.00 | 0.00 | 0.00 | 66 | 1010.8 |
| 20260508135545 | 67 | 263 | 3.0 | 4.0 | 0.00 | 0.00 | 0.00 | 66 | 1010.8 |
| 20260508135044 | 67 | 265 | 2.0 | 3.0 | 0.00 | 0.00 | 0.00 | 66 | 1010.9 |
| 20260508134546 | 67 | 265 | 1.0 | 3.0 | 0.00 | 0.00 | 0.00 | 67 | 1011.0 |
| 20260508134045 | 67 | 267 | 0.0 | 2.0 | 0.00 | 0.00 | 0.00 | 68 | 1011.0 |
| 20260508133544 | 67 | 267 | 2.0 | 3.0 | 0.00 | 0.00 | 0.00 | 68 | 1011.1 |
| 20260508133045 | 67 | 267 | 0.0 | 2.0 | 0.00 | 0.00 | 0.00 | 68 | 1011.1 |
| 20260508132545 | 67 | 267 | 1.0 | 2.0 | 0.00 | 0.00 | 0.00 | 69 | 1011.2 |
| 20260508132045 | 67 | 267 | 1.0 | 3.0 | 0.00 | 0.00 | 0.00 | 69 | 1011.2 |
| 20260508131545 | 67 | 267 | 3.0 | 3.0 | 0.00 | 0.00 | 0.00 | 69 | 1011.2 |
| 20260508131045 | 67 | 267 | 1.0 | 2.0 | 0.00 | 0.00 | 0.00 | 70 | 1011.3 |
| 20260508130545 | 67 | 267 | 1.0 | 2.0 | 0.00 | 0.00 | 0.00 | 69 | 1011.1 |
| 20260508130045 | 67 | 267 | 0.0 | 3.0 | 0.00 | 0.00 | 0.00 | 69 | 1011.2 |
| 20260508125545 | 67 | 267 | 1.0 | 4.0 | 0.00 | 0.00 | 0.00 | 70 | 1011.1 |
| 20260508125044 | 67 | 217 | 0.0 | 3.0 | 0.00 | 0.00 | 0.00 | 69 | 1011.1 |
| 20260508124548 | 67 | 216 | 3.0 | 4.0 | 0.00 | 0.00 | 0.00 | 68 | 1011.2 |
| 20260508124045 | 67 | 178 | 0.0 | 5.0 | 0.00 | 0.00 | 0.00 | 69 | 1011.3 |
| 20260508123545 | 67 | 209 | 1.0 | 3.0 | 0.00 | 0.00 | 0.00 | 69 | 1011.2 |
| 20260508123045 | 67 | 215 | 0.0 | 5.0 | 0.00 | 0.00 | 0.00 | 68 | 1011.2 |
| 20260508122545 | 67 | 182 | 4.0 | 8.0 | 0.00 | 0.00 | 0.00 | 69 | 1011.2 |
| 20260508122047 | 67 | 178 | 1.0 | 6.0 | 0.00 | 0.00 | 0.00 | 71 | 1011.1 |
| 20260508121545 | 67 | 186 | 2.0 | 6.0 | 0.00 | 0.00 | 0.00 | 72 | 1011.0 |
| 20260508121048 | 67 | 178 | 3.0 | 9.0 | 0.00 | 0.00 | 0.00 | 72 | 1011.0 |
| 20260508120544 | 67 | 218 | 1.0 | 8.0 | 0.00 | 0.00 | 0.00 | 72 | 1010.9 |
| 20260508120045 | 66 | 207 | 3.0 | 8.0 | 0.00 | 0.00 | 0.00 | 75 | 1010.9 |
| 20260508115548 | 66 | 182 | 4.0 | 9.0 | 0.00 | 0.00 | 0.00 | 78 | 1010.9 |
| 20260508115044 | 66 | 166 | 5.0 | 10.0 | 0.00 | 0.00 | 0.00 | 79 | 1010.9 |
| 20260508114544 | 66 | 152 | 2.0 | 9.0 | 0.00 | 0.00 | 0.00 | 79 | 1010.9 |
| 20260508114044 | 65 | 163 | 5.0 | 10.0 | 0.00 | 0.00 | 0.00 | 78 | 1010.9 |
| 20260508113544 | 66 | 180 | 6.0 | 11.0 | 0.00 | 0.00 | 0.00 | 80 | 1010.9 |
| 20260508113044 | 66 | 217 | 5.0 | 8.0 | 0.00 | 0.00 | 0.00 | 80 | 1011.0 |
| 20260508112545 | 66 | 177 | 2.0 | 9.0 | 0.00 | 0.00 | 0.00 | 80 | 1010.9 |
| 20260508112044 | 66 | 169 | 4.0 | 7.0 | 0.00 | 0.00 | 0.00 | 79 | 1010.9 |
| 20260508111544 | 66 | 167 | 1.0 | 7.0 | 0.00 | 0.00 | 0.00 | 79 | 1011.0 |
| 20260508111044 | 66 | 167 | 5.0 | 7.0 | 0.00 | 0.00 | 0.00 | 79 | 1011.0 |
| 20260508110544 | 66 | 180 | 3.0 | 6.0 | 0.00 | 0.00 | 0.00 | 78 | 1011.0 |
| 20260508110045 | 66 | 218 | 1.0 | 9.0 | 0.00 | 0.00 | 0.00 | 77 | 1011.0 |
| 20260508105544 | 66 | 225 | 2.0 | 9.0 | 0.00 | 0.00 | 0.00 | 75 | 1011.0 |
| 20260508105045 | 66 | 269 | 1.0 | 9.0 | 0.00 | 0.00 | 0.00 | 77 | 1010.9 |
| 20260508104544 | 66 | 162 | 4.0 | 10.0 | 0.00 | 0.00 | 0.00 | 77 | 1010.8 |
| 20260508104044 | 67 | 188 | 6.0 | 7.0 | 0.00 | 0.00 | 0.00 | 75 | 1010.8 |
| 20260508103544 | 66 | 258 | 4.0 | 10.0 | 0.00 | 0.00 | 0.00 | 73 | 1010.9 |
| 20260508103045 | 67 | 248 | 3.0 | 10.0 | 0.00 | 0.00 | 0.00 | 72 | 1010.9 |
| 20260508102545 | 67 | 239 | 4.0 | 8.0 | 0.00 | 0.00 | 0.00 | 73 | 1010.9 |
| 20260508102045 | 67 | 295 | 4.0 | 11.0 | 0.00 | 0.00 | 0.00 | 73 | 1010.9 |
| 20260508101545 | 67 | 170 | 4.0 | 7.0 | 0.00 | 0.00 | 0.00 | 71 | 1010.9 |
| 20260508101045 | 67 | 159 | 6.0 | 11.0 | 0.00 | 0.00 | 0.00 | 70 | 1010.9 |
| 20260508100545 | 67 | 153 | 10.0 | 16.0 | 0.00 | 0.00 | 0.00 | 67 | 1010.8 |
| 20260508100047 | 67 | 172 | 6.0 | 9.0 | 0.00 | 0.00 | 0.00 | 66 | 1010.8 |
| 20260508095545 | 67 | 216 | 7.0 | 10.0 | 0.00 | 0.00 | 0.00 | 66 | 1010.8 |
| 20260508095044 | 67 | 180 | 5.0 | 11.0 | 0.00 | 0.00 | 0.00 | 67 | 1010.7 |
| 20260508094545 | 67 | 153 | 9.0 | 12.0 | 0.00 | 0.00 | 0.00 | 67 | 1010.6 |
| 20260508094045 | 67 | 205 | 6.0 | 14.0 | 0.00 | 0.00 | 0.00 | 66 | 1010.6 |
| 20260508093545 | 67 | 219 | 3.0 | 19.0 | 0.00 | 0.00 | 0.00 | 66 | 1010.5 |
| 20260508093045 | 68 | 223 | 2.0 | 16.0 | 0.00 | 0.00 | 0.00 | 65 | 1010.4 |
| 20260508092547 | 68 | 172 | 14.0 | 15.0 | 0.00 | 0.00 | 0.00 | 64 | 1010.4 |
| 20260508092044 | 69 | 159 | 6.0 | 14.0 | 0.00 | 0.00 | 0.00 | 64 | 1010.3 |
| 20260508091545 | 69 | 183 | 10.0 | 12.0 | 0.00 | 0.00 | 0.00 | 65 | 1010.3 |
| 20260508091044 | 69 | 196 | 2.0 | 11.0 | 0.00 | 0.00 | 0.00 | 65 | 1010.2 |
| 20260508090544 | 69 | 169 | 5.0 | 14.0 | 0.00 | 0.00 | 0.00 | 64 | 1010.2 |
| 20260508090044 | 69 | 217 | 4.0 | 10.0 | 0.00 | 0.00 | 0.00 | 64 | 1010.2 |
| 20260508085545 | 69 | 164 | 6.0 | 14.0 | 0.00 | 0.00 | 0.00 | 64 | 1010.1 |
| 20260508085044 | 69 | 154 | 2.0 | 12.0 | 0.00 | 0.00 | 0.00 | 66 | 1010.1 |
| 20260508084544 | 69 | 220 | 6.0 | 12.0 | 0.00 | 0.00 | 0.00 | 65 | 1010.0 |
| 20260508084044 | 69 | 223 | 3.0 | 13.0 | 0.00 | 0.00 | 0.00 | 66 | 1010.0 |
| 20260508083547 | 69 | 195 | 3.0 | 12.0 | 0.00 | 0.00 | 0.00 | 67 | 1010.0 |
| 20260508083047 | 68 | 175 | 9.0 | 11.0 | 0.00 | 0.00 | 0.00 | 64 | 1010.0 |
| 20260508082547 | 68 | 174 | 3.0 | 11.0 | 0.00 | 0.00 | 0.00 | 64 | 1009.9 |
| 20260508082045 | 68 | 191 | 4.0 | 9.0 | 0.00 | 0.00 | 0.00 | 65 | 1009.9 |
| 20260508081547 | 68 | 167 | 5.0 | 9.0 | 0.00 | 0.00 | 0.00 | 64 | 1009.9 |
| 20260508081045 | 68 | 167 | 5.0 | 11.0 | 0.00 | 0.00 | 0.00 | 64 | 1009.8 |
| 20260508080545 | 68 | 143 | 13.0 | 14.0 | 0.00 | 0.00 | 0.00 | 63 | 1009.7 |
| 20260508080045 | 68 | 150 | 10.0 | 15.0 | 0.00 | 0.00 | 0.00 | 64 | 1009.7 |
| 20260508075545 | 68 | 147 | 10.0 | 13.0 | 0.00 | 0.00 | 0.00 | 64 | 1009.6 |
| 20260508075045 | 68 | 171 | 6.0 | 16.0 | 0.00 | 0.00 | 0.00 | 65 | 1009.6 |
| 20260508074545 | 68 | 187 | 7.0 | 16.0 | 0.00 | 0.00 | 0.00 | 65 | 1009.5 |
| 20260508074045 | 68 | 123 | 9.0 | 13.0 | 0.00 | 0.00 | 0.00 | 65 | 1009.5 |
| 20260508073545 | 68 | 152 | 4.0 | 12.0 | 0.00 | 0.00 | 0.00 | 66 | 1009.4 |
| 20260508073048 | 68 | 166 | 9.0 | 12.0 | 0.00 | 0.00 | 0.00 | 67 | 1009.4 |
| 20260508072544 | 67 | 157 | 6.0 | 15.0 | 0.00 | 0.00 | 0.00 | 68 | 1009.3 |
| 20260508072048 | 67 | 167 | 10.0 | 13.0 | 0.00 | 0.00 | 0.00 | 69 | 1009.2 |
| 20260508071545 | 67 | 180 | 8.0 | 16.0 | 0.00 | 0.00 | 0.00 | 70 | 1009.2 |
| 20260508071044 | 67 | 157 | 10.0 | 13.0 | 0.00 | 0.00 | 0.00 | 72 | 1009.1 |
| 20260508070547 | 67 | 180 | 3.0 | 11.0 | 0.00 | 0.00 | 0.00 | 73 | 1009.0 |
| 20260508070045 | 66 | 149 | 6.0 | 11.0 | 0.00 | 0.00 | 0.00 | 74 | 1009.0 |
| 20260508065545 | 66 | 145 | 6.0 | 12.0 | 0.00 | 0.00 | 0.00 | 75 | 1009.1 |
| 20260508065047 | 66 | 180 | 4.0 | 10.0 | 0.00 | 0.00 | 0.00 | 75 | 1009.0 |
| 20260508064544 | 66 | 141 | 10.0 | 10.0 | 0.00 | 0.00 | 0.00 | 75 | 1009.1 |
| 20260508064044 | 66 | 167 | 6.0 | 11.0 | 0.00 | 0.00 | 0.00 | 75 | 1009.0 |
| 20260508063544 | 66 | 151 | 5.0 | 10.0 | 0.00 | 0.00 | 0.00 | 74 | 1008.9 |
| 20260508063044 | 65 | 154 | 4.0 | 8.0 | 0.00 | 0.00 | 0.00 | 75 | 1008.9 |
| 20260508062545 | 65 | 159 | 5.0 | 6.0 | 0.00 | 0.00 | 0.00 | 75 | 1008.9 |
| 20260508062044 | 65 | 157 | 5.0 | 7.0 | 0.00 | 0.00 | 0.00 | 75 | 1008.8 |
| 20260508061545 | 65 | 159 | 4.0 | 7.0 | 0.00 | 0.00 | 0.00 | 75 | 1008.8 |
| 20260508061044 | 65 | 159 | 2.0 | 7.0 | 0.00 | 0.00 | 0.00 | 75 | 1008.8 |
| 20260508060544 | 65 | 156 | 2.0 | 5.0 | 0.00 | 0.00 | 0.00 | 74 | 1008.8 |
| 20260508060047 | 65 | 155 | 3.0 | 7.0 | 0.00 | 0.00 | 0.00 | 74 | 1008.7 |
| 20260508055544 | 65 | 155 | 2.0 | 6.0 | 0.00 | 0.00 | 0.00 | 74 | 1008.7 |
| 20260508055045 | 64 | 155 | 2.0 | 8.0 | 0.00 | 0.00 | 0.00 | 74 | 1008.6 |
| 20260508054544 | 64 | 146 | 6.0 | 6.0 | 0.00 | 0.00 | 0.00 | 74 | 1008.6 |
| 20260508054045 | 64 | 135 | 3.0 | 7.0 | 0.00 | 0.00 | 0.00 | 74 | 1008.5 |
| 20260508053544 | 64 | 136 | 2.0 | 3.0 | 0.00 | 0.00 | 0.00 | 75 | 1008.4 |
| 20260508053045 | 64 | 136 | 2.0 | 4.0 | 0.00 | 0.00 | 0.00 | 74 | 1008.4 |
| 20260508052544 | 64 | 136 | 2.0 | 3.0 | 0.00 | 0.00 | 0.00 | 74 | 1008.4 |
| 20260508052044 | 64 | 136 | 1.0 | 3.0 | 0.00 | 0.00 | 0.00 | 74 | 1008.4 |
| 20260508051548 | 64 | 136 | 2.0 | 3.0 | 0.00 | 0.00 | 0.00 | 74 | 1008.3 |
| 20260508051044 | 64 | 136 | 0.0 | 4.0 | 0.00 | 0.00 | 0.00 | 74 | 1008.2 |
| 20260508050544 | 64 | 136 | 1.0 | 4.0 | 0.00 | 0.00 | 0.00 | 74 | 1008.2 |
| 20260508050044 | 64 | 136 | 4.0 | 5.0 | 0.00 | 0.00 | 0.00 | 74 | 1008.1 |
| 20260508045544 | 64 | 134 | 4.0 | 8.0 | 0.00 | 0.00 | 0.00 | 74 | 1008.0 |